Wind_Speed
23 22 21 22 24 25 26 27 27 27 27 28 29 30 31 32 31 31 33 34 34 35 33 31 33 32 31 29 27 27 27 25 8 8 18 22 25 24 21 18 17 16 17
29 28 26 25 25 26 28 28 29 29 28 29 29 31 32 34 34 34 36 36 37 37 37 34 36 32 31 30 28 29 28 26 20 10 20 23 24 28 24 21 19 18 16
28 28 27 28 30 31 31 31 31 32 32 31 31 33 36 36 35 35 37 38 40 40 40 39 40 35 36 35 33 31 29 26 26 16 15 22 19 30 26 21 20 18 17
32 32 31 32 31 31 31 32 33 34 35 36 34 34 34 36 40 39 38 38 41 43 43 43 42 41 41 41 37 36 33 30 30 21 17 17 21 29 29 28 22 20 19
31 30 31 32 33 34 35 35 36 35 35 35 35 35 36 39 41 40 41 42 43 44 45 45 44 44 42 43 40 40 36 32 28 23 15 13 18 20 30 26 21 23 19
28 28 30 32 34 35 35 36 38 39 40 39 39 38 38 39 39 40 42 43 43 46 45 46 46 46 44 41 40 41 41 39 30 21 21 18 22 23 27 30 23 15 7
27 30 32 34 37 39 40 42 43 43 43 43 43 42 44 42 41 38 38 40 41 45 46 44 43 47 47 42 38 36 35 37 38 37 30 27 26 33 33 30 26 20 12
28 33 36 39 42 42 42 40 42 40 39 40 42 44 44 47 45 42 37 39 40 44 44 46 46 42 48 45 40 38 40 40 39 33 35 30 34 34 35 33 31 22 14
28 34 37 38 37 37 36 37 38 40 39 39 37 39 38 47 43 43 35 34 37 40 41 45 45 41 43 43 40 35 33 33 35 28 27 26 26 24 32 30 28 26 5
30 32 35 35 35 36 34 36 36 34 35 35 40 36 38 41 43 39 34 32 34 33 34 38 42 42 36 34 35 31 30 30 30 22 18 16 20 22 27 28 32 27 11
30 33 34 35 36 34 35 35 34 34 34 34 36 39 36 35 41 36 33 31 33 32 32 33 34 35 38 36 37 38 34 26 26 28 27 26 24 25 24 24 23 27 21
32 34 35 35 35 34 34 36 33 33 33 33 33 36 34 33 32 34 32 31 35 34 36 33 32 30 34 35 36 33 24 25 30 30 29 27 26 24 21 20 20 18 17
33 35 35 35 35 33 31 32 31 28 27 29 29 32 36 35 34 31 31 32 34 36 38 35 30 30 28 34 38 31 30 32 28 25 23 21 24 25 21 19 17 15 14
31 31 31 30 32 31 28 25 26 26 28 29 30 31 35 38 35 34 31 31 32 32 37 34 29 27 29 33 32 31 33 32 30 24 21 22 25 24 24 21 18 18 16
30 31 29 28 29 29 25 24 26 25 26 32 31 33 33 36 36 41 43 39 33 30 32 24 22 22 22 22 23 22 24 26 22 22 23 22 22 23 22 21 17 19 12
28 27 30 29 30 27 27 31 24 24 28 27 29 31 37 36 41 43 41 40 37 36 30 20 20 21 21 19 19 20 25 29 27 26 27 27 24 23 22 22 19 19 17
24 27 28 28 25 25 26 27 32 43 29 26 28 33 34 38 40 41 42 41 35 34 26 20 19 19 19 18 22 24 22 26 30 27 26 24 23 22 24 21 19 18 15
24 24 24 25 26 26 25 26 25 26 30 40 36 34 35 37 40 39 38 38 28 19 20 16 18 18 17 21 23 22 22 26 27 26 25 24 24 24 21 19 19 18 17
25 26 27 28 28 27 26 25 25 26 27 29 34 35 34 37 36 36 34 31 24 20 21 14 17 21 24 24 22 23 26 28 27 26 24 25 24 24 20 19 20 20 19
25 27 27 29 28 26 26 25 25 25 25 25 27 29 35 36 33 32 31 29 27 24 23 14 16 22 27 28 27 25 23 23 24 25 25 24 24 24 21 21 21 20 20
25 28 28 27 25 24 24 23 24 24 25 26 27 28 31 30 26 26 26 28 27 25 18 8 14 17 21 23 24 24 24 24 24 24 23 23 23 22 20 19 19 20 19
24 27 28 26 26 26 26 27 26 25 25 26 28 28 28 27 24 24 26 26 23 21 17 9 2 7 14 18 20 20 22 22 22 21 21 21 20 19 17 17 17 18 18
25 27 29 30 29 28 26 27 27 26 26 27 28 28 28 27 26 25 25 24 22 20 17 13 7 2 4 8 11 14 16 17 17 18 19 17 16 16 16 17 18 18 19
25 26 28 30 30 30 27 27 28 29 29 28 27 27 28 27 26 25 23 21 20 18 15 11 9 7 4 3 3 5 6 8 9 9 10 11 12 14 16 17 18 19 19
23 25 26 28 29 30 30 28 27 28 28 28 27 26 27 28 27 25 23 20 18 16 15 12 9 6 5 3 3 3 4 6 7 8 9 11 13 15 16 17 18 18 17
25 25 26 27 28 28 27 26 26 26 27 28 27 26 26 26 26 26 24 21 19 17 14 12 10 8 7 6 5 5 6 7 8 9 11 13 14 15 15 16 16 17 16
Wind_Direction
13 5 351 341 341 340 337 335 331 325 320 314 308 302 296 293 289 281 276 272 266 264 259 253 249 244 241 238 234 230 227 222 193 191 205 206 201 205 203 205 206 201 196
12 11 7 0 351 344 340 338 337 330 322 317 310 300 295 290 288 283 278 272 268 265 263 257 252 247 243 240 236 232 229 223 216 179 195 193 201 202 203 201 200 201 201
10 8 6 3 359 355 349 343 337 331 327 321 315 306 297 290 285 281 277 274 271 268 265 261 257 251 247 241 234 231 228 223 221 206 189 195 196 195 190 193 200 198 200
5 4 2 360 356 352 348 345 342 339 334 327 319 308 301 296 287 281 272 265 264 265 264 261 258 254 250 247 238 235 229 219 216 210 202 191 195 192 195 186 186 196 195
357 357 355 352 351 349 348 344 340 337 333 329 322 315 306 297 290 284 279 274 268 263 261 259 257 256 254 253 246 238 228 219 209 198 193 189 191 181 189 189 184 191 198
358 356 352 350 348 347 345 342 339 336 332 327 324 317 308 300 295 288 283 279 273 267 261 259 256 255 250 246 248 251 244 221 209 195 200 202 208 203 186 187 177 167 187
351 349 347 345 342 341 339 337 334 331 327 324 321 317 311 304 297 292 285 272 264 263 260 255 254 253 250 243 239 240 242 242 238 224 204 202 200 203 193 183 187 183 173
348 345 344 342 338 336 335 334 330 324 322 319 316 315 309 302 302 298 289 275 263 260 257 256 251 248 250 240 229 226 233 234 230 228 228 219 226 222 210 198 191 181 174
346 342 340 338 333 330 329 327 326 323 320 315 309 305 301 302 301 298 290 273 264 260 257 255 251 248 247 243 227 215 214 218 225 222 232 229 229 222 204 192 179 167 147
339 336 336 334 332 326 324 322 322 317 310 309 307 303 300 297 300 294 286 271 265 263 259 253 251 243 239 227 219 214 209 203 206 207 201 202 202 192 199 200 191 169 146
336 335 336 336 333 328 325 323 321 314 311 311 307 306 304 298 299 297 287 273 262 266 258 253 248 240 231 222 218 213 215 197 186 198 183 180 185 177 188 188 192 196 176
336 338 339 338 333 331 324 323 320 317 315 314 313 311 311 310 305 302 296 284 273 266 261 259 252 243 228 223 218 213 202 201 187 179 176 181 185 182 182 177 180 187 192
338 340 338 337 336 330 321 318 317 319 315 314 316 314 313 314 313 309 301 299 290 276 268 256 250 244 229 223 213 201 190 191 181 178 174 175 182 188 174 164 164 170 167
337 336 334 330 328 328 323 318 316 317 316 315 313 311 311 310 311 309 301 295 292 286 278 258 236 227 222 219 214 200 191 190 181 176 171 171 184 179 176 173 165 165 164
335 335 331 328 329 324 321 318 316 313 311 312 312 312 312 309 311 311 310 301 288 282 283 240 214 206 212 215 202 204 182 167 163 165 164 167 170 177 180 180 177 175 169
334 332 332 330 330 326 322 321 322 316 319 316 314 315 314 310 312 313 311 309 303 286 278 225 219 209 204 198 175 154 161 167 177 186 184 183 174 174 176 184 187 190 184
333 335 334 333 324 323 325 325 324 327 327 325 325 324 322 318 320 319 316 312 297 290 268 229 214 207 198 182 166 169 174 179 188 183 181 177 179 179 178 180 189 193 192
337 338 338 330 327 324 322 319 318 320 322 323 329 330 328 328 327 325 326 323 311 277 276 226 208 197 186 173 177 178 176 178 180 182 185 185 185 181 177 180 186 191 193
342 342 341 334 331 326 319 318 320 319 316 315 323 329 331 332 332 333 332 334 324 329 323 252 208 184 178 182 182 182 185 184 184 182 184 185 186 185 183 188 194 204 205
347 346 338 336 332 325 323 320 316 315 315 319 322 322 327 333 337 337 336 335 336 332 317 257 199 187 185 186 185 186 183 183 185 188 191 193 193 195 190 192 196 196 207
346 342 342 337 329 319 313 311 313 316 318 317 315 320 331 336 330 333 334 341 345 341 337 277 201 190 185 188 187 188 193 197 201 199 199 199 199 194 200 205 208 211 213
343 342 340 333 327 323 321 319 319 318 315 313 317 323 335 339 336 337 339 341 346 352 349 340 237 189 190 194 194 195 199 201 204 204 201 199 198 199 199 204 208 209 211
342 339 337 334 332 326 321 321 320 317 314 314 320 326 335 337 338 338 339 339 341 349 1 9 4 334 190 192 196 206 205 205 206 204 200 200 202 205 208 211 211 210 213
337 332 330 330 329 326 322 318 318 319 319 318 322 326 331 334 336 336 336 335 337 340 346 352 6 21 40 92 144 170 179 186 193 200 209 214 217 220 217 217 219 222 223
332 331 328 326 325 325 322 316 314 317 318 319 320 322 325 332 333 334 333 334 333 334 336 339 340 336 326 310 275 241 226 224 220 221 222 223 224 222 220 221 220 218 217
332 330 329 329 327 325 317 312 312 314 315 319 320 322 323 325 329 331 331 331 329 328 328 329 329 327 320 310 295 281 270 263 255 243 231 225 221 218 219 221 221 221 222
Height
836 832 831 830 827 825 822 820 818 814 812 808 806 804 803 803 803 800 798 798 797 794 792 790 789 788 787 788 789 789 790 791 793 796 798 801 804 806 810 813 815 816 818
837 833 832 828 825 823 820 816 812 810 808 804 801 798 796 795 795 795 793 792 793 791 788 788 784 785 783 783 784 784 784 787 787 789 791 794 795 799 803 807 810 812 815
837 834 830 827 824 819 816 813 809 805 800 797 796 794 790 786 784 784 785 785 784 784 783 782 779 780 777 776 775 775 776 779 781 781 784 788 790 793 797 801 804 807 810
833 829 827 825 822 819 816 812 808 802 797 794 790 786 782 779 777 774 771 769 769 769 771 772 771 770 770 769 769 769 769 769 771 774 779 782 785 787 791 794 799 802 805
834 831 829 825 820 816 812 808 805 800 796 791 786 780 777 774 771 767 765 765 762 756 756 757 759 759 760 762 765 761 761 763 762 764 770 775 779 780 778 784 791 795 800
836 832 829 825 821 818 812 807 802 797 792 787 781 775 769 765 761 759 757 756 753 750 748 744 743 746 745 748 753 758 757 754 754 753 760 764 771 775 772 776 782 788 794
837 833 828 824 818 813 807 802 798 792 786 780 773 769 760 755 754 748 748 745 742 737 734 733 733 732 732 735 739 746 749 753 750 743 746 747 758 761 763 768 775 777 778
835 831 827 821 816 810 804 798 792 789 782 775 767 762 756 749 747 743 739 737 732 727 724 722 720 720 721 723 726 726 733 737 738 741 741 742 749 754 755 758 764 772 778
836 831 826 822 815 809 800 796 790 782 774 769 763 755 750 739 737 734 732 729 723 717 715 712 710 712 711 716 717 717 719 725 732 730 740 738 745 750 748 752 758 766 774
835 830 825 820 813 807 800 793 785 780 770 766 754 751 743 734 729 726 724 720 714 710 707 703 702 701 703 704 707 713 713 711 720 727 730 737 742 742 746 746 748 755 763
832 826 820 817 809 804 796 790 780 776 769 759 752 742 736 730 720 718 716 713 708 703 699 695 692 691 694 695 696 699 703 709 712 719 724 729 739 736 740 743 746 750 755
828 819 815 811 807 798 794 785 780 773 763 755 748 737 730 724 718 712 709 705 701 698 690 687 687 687 689 689 693 693 697 707 708 712 714 725 731 733 739 739 743 749 753
823 817 813 809 803 799 792 784 777 771 764 755 748 739 727 721 715 708 703 700 695 689 685 679 679 681 683 685 685 686 691 699 702 708 709 718 724 732 736 737 742 748 752
821 816 812 806 801 796 790 784 777 770 763 756 747 738 728 717 711 705 697 691 686 681 676 671 670 672 676 678 680 681 685 689 693 698 708 714 721 727 731 734 740 744 751
819 814 808 803 796 790 786 781 775 770 764 755 747 739 729 714 707 704 696 686 679 675 671 665 665 664 669 672 675 678 682 687 695 700 707 713 718 723 729 732 737 742 746
816 811 805 799 793 787 780 771 770 764 758 752 745 738 725 718 706 697 689 681 673 668 664 660 660 659 662 667 670 673 678 683 690 698 704 708 713 719 724 729 735 737 743
814 809 803 797 792 786 779 773 761 746 752 746 740 731 723 713 702 693 683 673 664 661 656 654 654 656 658 662 666 671 676 680 686 693 700 704 710 715 719 725 730 734 741
811 805 800 795 789 784 778 772 767 759 747 732 729 727 718 709 699 689 679 668 658 653 652 649 650 652 655 659 663 668 673 678 684 690 696 701 707 711 715 720 724 730 736
808 802 798 793 788 783 777 771 764 757 751 741 728 719 715 706 697 688 680 672 662 656 652 648 647 648 651 656 661 666 670 675 680 686 693 699 703 707 712 716 721 726 730
804 801 797 792 786 781 775 769 764 757 749 740 732 724 713 704 695 688 682 675 667 660 654 650 648 647 647 650 656 663 669 674 680 685 690 695 699 703 708 712 717 721 725
803 799 794 789 784 780 775 769 762 754 746 740 732 725 718 710 701 694 687 679 672 665 658 654 650 649 650 652 656 661 667 672 677 681 686 690 695 700 705 709 713 717 721
800 796 792 788 783 777 771 765 758 751 744 738 729 721 715 708 702 695 689 684 677 671 665 660 657 656 655 656 658 661 665 669 674 679 683 688 692 697 700 704 709 714 717
799 794 789 784 779 774 768 761 755 749 742 736 728 719 713 707 702 696 691 687 682 676 670 666 663 662 661 661 662 665 667 669 673 677 681 686 689 693 697 701 705 710 713
796 792 787 782 776 770 764 758 753 746 739 732 725 718 712 707 702 696 692 688 684 680 675 672 669 667 666 666 667 669 670 672 674 677 680 684 687 690 694 698 702 706 710
793 789 784 778 772 767 761 755 749 743 737 731 723 717 711 706 701 696 692 688 685 681 678 675 672 671 670 670 670 671 671 672 674 676 678 681 684 688 691 694 698 702 705
789 785 780 775 769 764 758 752 746 740 733 727 721 715 710 704 700 695 691 688 685 682 680 677 675 673 671 671 671 671 671 672 673 675 677 679 682 685 688 692 695 697 700